�������l�o���
Date,Time,MP-1(��Sv/h),MP-2(��Sv/h),MP-3(��Sv/h),MP-4(��Sv/h),MP-5(��Sv/h),MP-6(��Sv/h),MP-7(��Sv/h),MP-8(��Sv/h),����,����(m/s),���J
2024/06/16,00:00,0.516,0.791,0.497,0.983,0.723,0.319,0.558,0.517,��쐼,3.3,��
2024/06/16,00:10,0.516,0.791,0.495,0.984,0.723,0.320,0.559,0.516,��,3.7,��
2024/06/16,00:20,0.517,0.792,0.497,0.985,0.722,0.320,0.559,0.517,��,3.4,��
2024/06/16,00:30,0.518,0.789,0.495,0.986,0.723,0.320,0.559,0.516,��,3.1,��
2024/06/16,00:40,0.515,0.791,0.495,0.985,0.722,0.319,0.560,0.517,��,3.2,��
2024/06/16,00:50,0.517,0.789,0.496,0.985,0.722,0.321,0.557,0.517,��,3.1,��
2024/06/16,01:00,0.517,0.793,0.496,0.984,0.722,0.321,0.558,0.516,��,2.8,��
2024/06/16,01:10,0.517,0.793,0.497,0.983,0.722,0.320,0.560,0.517,��,3.4,��
2024/06/16,01:20,0.517,0.792,0.496,0.982,0.723,0.321,0.558,0.516,��,3.2,��
2024/06/16,01:30,0.519,0.791,0.496,0.984,0.723,0.322,0.558,0.517,��,2.5,��
2024/06/16,01:40,0.516,0.790,0.497,0.983,0.723,0.320,0.560,0.517,��,2.0,��
2024/06/16,01:50,0.517,0.789,0.497,0.984,0.723,0.321,0.560,0.516,��쓌,3.1,��
2024/06/16,02:00,0.516,0.793,0.495,0.984,0.723,0.320,0.559,0.518,��쓌,3.6,��
2024/06/16,02:10,0.518,0.792,0.496,0.985,0.722,0.319,0.560,0.516,��쓌,3.1,��
2024/06/16,02:20,0.517,0.792,0.496,0.985,0.722,0.321,0.560,0.516,��쓌,1.9,��
2024/06/16,02:30,0.519,0.791,0.497,0.984,0.722,0.322,0.559,0.517,��쓌,1.2,��
2024/06/16,02:40,0.518,0.791,0.497,0.984,0.722,0.321,0.560,0.518,��쓌,1.9,��
2024/06/16,02:50,0.517,0.792,0.496,0.984,0.723,0.324,0.560,0.517,��,1.2,��
2024/06/16,03:00,0.518,0.792,0.495,0.984,0.725,0.321,0.560,0.517,��쐼,1.7,��
2024/06/16,03:10,0.517,0.792,0.498,0.984,0.725,0.320,0.560,0.518,��쐼,1.7,��
2024/06/16,03:20,0.518,0.791,0.496,0.985,0.723,0.321,0.560,0.518,�쓌,1.1,��
2024/06/16,03:30,0.517,0.791,0.498,0.988,0.722,0.321,0.561,0.517,��쓌,1.4,��
2024/06/16,03:40,0.517,0.791,0.497,0.985,0.722,0.321,0.562,0.517,��쓌,1.1,�L
2024/06/16,03:50,0.516,0.790,0.497,0.983,0.721,0.321,0.560,0.516,�쓌,1.5,�L
2024/06/16,04:00,0.517,0.791,0.497,0.985,0.726,0.322,0.560,0.518,�k��,2.6,�L
2024/06/16,04:10,0.518,0.793,0.496,0.988,0.724,0.322,0.561,0.518,���k��,2.8,�L
2024/06/16,04:20,0.518,0.793,0.497,0.988,0.722,0.321,0.562,0.517,��,1.2,�L
2024/06/16,04:30,0.518,0.792,0.497,0.985,0.724,0.321,0.561,0.518,�k��,1.5,�L
2024/06/16,04:40,0.519,0.792,0.497,0.987,0.723,0.321,0.561,0.516,��,0.6,�L
2024/06/16,04:50,0.518,0.794,0.496,0.986,0.725,0.322,0.560,0.518,���k��,1.1,��
2024/06/16,05:00,0.518,0.792,0.497,0.988,0.723,0.323,0.561,0.518,���k��,1.9,��
2024/06/16,05:10,0.519,0.792,0.497,0.986,0.723,0.321,0.562,0.516,�k�k��,1.4,��
2024/06/16,05:20,0.517,0.790,0.498,0.987,0.723,0.322,0.560,0.518,�k�k��,2.3,��
2024/06/16,05:30,0.518,0.792,0.497,0.987,0.724,0.322,0.562,0.518,�k,2.2,�L
2024/06/16,05:40,0.518,0.792,0.497,0.987,0.723,0.321,0.561,0.517,�k��,2.9,�L
2024/06/16,05:50,0.519,0.793,0.497,0.986,0.724,0.321,0.562,0.517,�k,2.0,�L
2024/06/16,06:00,0.517,0.791,0.498,0.986,0.723,0.322,0.562,0.518,�k,1.2,�L
2024/06/16,06:10,0.518,0.792,0.497,0.984,0.723,0.322,0.562,0.517,�k��,2.0,�L
2024/06/16,06:20,0.518,0.792,0.498,0.985,0.722,0.322,0.562,0.517,�k�k��,2.8,�L
2024/06/16,06:30,0.519,0.793,0.498,0.986,0.725,0.322,0.562,0.518,�k�k��,2.6,�L
2024/06/16,06:40,0.519,0.793,0.496,0.986,0.724,0.322,0.561,0.516,�k�k��,2.0,��
2024/06/16,06:50,0.518,0.792,0.497,0.984,0.724,0.322,0.561,0.518,�k�k��,2.3,��
2024/06/16,07:00,0.519,0.791,0.497,0.988,0.724,0.322,0.562,0.517,�k�k��,2.8,��
2024/06/16,07:10,0.519,0.793,0.499,0.985,0.720,0.322,0.561,0.519,�k�k��,3.5,��
2024/06/16,07:20,0.519,0.794,0.497,0.987,0.723,0.321,0.561,0.517,�k�k��,2.6,��
2024/06/16,07:30,0.519,0.793,0.498,0.988,0.722,0.321,0.563,0.517,�k�k��,2.6,��
2024/06/16,07:40,0.519,0.792,0.497,0.986,0.724,0.321,0.561,0.516,�k�k��,1.4,��
2024/06/16,07:50,0.520,0.791,0.498,0.984,0.720,0.320,0.560,0.517,�k,2.9,��
2024/06/16,08:00,0.520,0.790,0.497,0.984,0.721,0.319,0.561,0.516,�k,2.3,��
2024/06/16,08:10,0.518,0.792,0.495,0.985,0.722,0.319,0.561,0.516,�k,2.3,��
2024/06/16,08:20,0.517,0.794,0.497,0.985,0.721,0.318,0.562,0.516,�k�k��,1.9,��
2024/06/16,08:30,0.515,0.791,0.495,0.982,0.721,0.320,0.561,0.514,�k,1.4,��
2024/06/16,08:40,0.518,0.791,0.496,0.987,0.723,0.318,0.560,0.516,�k,1.5,��
2024/06/16,08:50,0.515,0.792,0.496,0.984,0.723,0.321,0.560,0.514,�k�k��,1.2,��
2024/06/16,09:00,0.516,0.786,0.494,0.984,0.722,0.320,0.560,0.515,�k��,0.9,��
2024/06/16,09:10,0.516,0.789,0.495,0.984,0.721,0.321,0.559,0.515,�k��,0.9,��
2024/06/16,09:20,0.517,0.790,0.497,0.983,0.719,0.320,0.561,0.514,���쓌,1.5,��
2024/06/16,09:30,0.516,0.790,0.495,0.986,0.722,0.321,0.560,0.514,��쓌,1.4,��
2024/06/16,09:40,0.515,0.791,0.495,0.985,0.721,0.319,0.560,0.514,���쓌,1.5,��
2024/06/16,09:50,0.515,0.790,0.497,0.984,0.724,0.321,0.561,0.516,���쓌,1.7,��
2024/06/16,10:00,0.517,0.790,0.496,0.984,0.722,0.320,0.560,0.513,���쓌,1.5,��
2024/06/16,10:10,0.517,0.787,0.496,0.985,0.723,0.320,0.561,0.515,���쓌,1.9,��
2024/06/16,10:20,0.517,0.789,0.495,0.984,0.723,0.320,0.561,0.516,���쓌,2.3,��
2024/06/16,10:30,0.515,0.789,0.494,0.985,0.723,0.319,0.561,0.514,�쓌,2.8,��
2024/06/16,10:40,0.516,0.790,0.494,0.985,0.724,0.319,0.561,0.515,�쓌,2.8,��
2024/06/16,10:50,0.517,0.790,0.494,0.981,0.722,0.319,0.560,0.516,��쓌,2.6,��
2024/06/16,11:00,0.518,0.790,0.495,0.986,0.721,0.320,0.562,0.513,�쓌,2.9,��
2024/06/16,11:10,0.516,0.791,0.495,0.981,0.722,0.320,0.562,0.516,��쓌,3.9,��
2024/06/16,11:20,0.517,0.790,0.495,0.984,0.723,0.320,0.562,0.515,�쓌,3.8,��
2024/06/16,11:30,0.516,0.791,0.495,0.984,0.724,0.321,0.561,0.514,�쓌,4.3,��
2024/06/16,11:40,0.518,0.791,0.493,0.982,0.722,0.321,0.564,0.516,��쓌,2.9,��
2024/06/16,11:50,0.518,0.792,0.496,0.983,0.721,0.321,0.560,0.515,��쓌,2.3,��
2024/06/16,12:00,0.517,0.793,0.495,0.984,0.723,0.319,0.562,0.516,�쓌,3.5,��
2024/06/16,12:10,0.517,0.791,0.497,0.985,0.722,0.321,0.561,0.517,�쓌,4.0,��
2024/06/16,12:20,0.516,0.791,0.496,0.983,0.723,0.320,0.563,0.515,��쓌,4.1,��
2024/06/16,12:30,0.517,0.791,0.497,0.983,0.721,0.321,0.562,0.515,��쓌,4.2,��
2024/06/16,12:40,0.519,0.791,0.497,0.983,0.722,0.320,0.562,0.515,�쓌,4.0,��
2024/06/16,12:50,0.518,0.794,0.496,0.984,0.723,0.319,0.563,0.516,�쓌,4.7,��
2024/06/16,13:00,0.518,0.792,0.496,0.983,0.723,0.321,0.562,0.516,��쓌,3.5,��
2024/06/16,13:10,0.519,0.791,0.496,0.983,0.723,0.320,0.563,0.518,��쓌,4.6,��
2024/06/16,13:20,0.520,0.792,0.495,0.982,0.721,0.321,0.562,0.516,��쓌,4.4,��
2024/06/16,13:30,0.518,0.792,0.496,0.982,0.722,0.320,0.562,0.516,��쓌,4.1,��
2024/06/16,13:40,0.517,0.792,0.496,0.983,0.721,0.320,0.563,0.516,�쓌,4.7,��
2024/06/16,13:50,0.518,0.790,0.496,0.983,0.723,0.321,0.561,0.516,�쓌,4.9,��
2024/06/16,14:00,0.517,0.792,0.497,0.985,0.722,0.320,0.562,0.515,�쓌,3.7,��
2024/06/16,14:10,0.516,0.793,0.497,0.984,0.722,0.320,0.563,0.516,�쓌,3.8,��
2024/06/16,14:20,0.517,0.792,0.495,0.985,0.723,0.321,0.562,0.515,��쓌,5.4,��
2024/06/16,14:30,0.518,0.792,0.496,0.983,0.724,0.321,0.562,0.517,��쓌,5.5,��
2024/06/16,14:40,0.517,0.789,0.497,0.985,0.723,0.320,0.562,0.516,��쓌,7.3,��
2024/06/16,14:50,0.517,0.791,0.495,0.984,0.725,0.321,0.562,0.517,��쓌,6.9,��
2024/06/16,15:00,0.516,0.791,0.496,0.983,0.724,0.320,0.561,0.517,��,7.9,��
2024/06/16,15:10,0.518,0.791,0.496,0.986,0.724,0.322,0.562,0.516,��,7.3,��
2024/06/16,15:20,0.516,0.790,0.498,0.986,0.727,0.321,0.562,0.516,��,7.4,��
2024/06/16,15:30,0.518,0.791,0.497,0.983,0.724,0.320,0.562,0.515,��,6.3,��
2024/06/16,15:40,0.518,0.793,0.497,0.982,0.722,0.322,0.562,0.516,��,8.3,��
2024/06/16,15:50,0.516,0.788,0.497,0.985,0.725,0.321,0.563,0.516,��,6.0,��
2024/06/16,16:00,0.518,0.790,0.499,0.986,0.726,0.320,0.562,0.515,��,4.6,��
2024/06/16,16:10,0.518,0.791,0.499,0.985,0.725,0.321,0.562,0.515,��,4.2,��
2024/06/16,16:20,0.517,0.792,0.499,0.987,0.726,0.322,0.561,0.516,��,3.6,��
2024/06/16,16:30,0.517,0.791,0.497,0.986,0.725,0.322,0.561,0.517,��,2.8,��
2024/06/16,16:40,0.520,0.791,0.499,0.986,0.725,0.320,0.562,0.516,��,2.9,��
2024/06/16,16:50,0.517,0.793,0.497,0.985,0.725,0.322,0.560,0.516,��쐼,2.6,��
2024/06/16,17:00,0.517,0.791,0.498,0.987,0.724,0.321,0.560,0.516,��쐼,1.2,��
2024/06/16,17:10,0.517,0.791,0.500,0.988,0.723,0.321,0.560,0.517,���k��,1.5,��
2024/06/16,17:20,0.517,0.793,0.498,0.987,0.724,0.323,0.561,0.517,�k��,0.6,��
2024/06/16,17:30,0.518,0.792,0.499,0.988,0.725,0.322,0.560,0.514,�k�k��,0.9,��
2024/06/16,17:40,0.517,0.793,0.499,0.989,0.725,0.322,0.559,0.516,-,CALM,��
2024/06/16,17:50,0.518,0.794,0.500,0.989,0.723,0.321,0.559,0.516,-,CALM,��
2024/06/16,18:00,0.516,0.794,0.498,0.989,0.725,0.323,0.558,0.516,-,CALM,��
2024/06/16,18:10,0.521,0.791,0.499,0.986,0.723,0.322,0.559,0.516,�k�k��,1.4,��
2024/06/16,18:20,0.520,0.790,0.498,0.986,0.724,0.323,0.561,0.517,�k�k��,2.0,��
2024/06/16,18:30,0.519,0.791,0.497,0.986,0.726,0.322,0.559,0.517,�k�k��,2.6,��
2024/06/16,18:40,0.519,0.792,0.497,0.986,0.725,0.321,0.559,0.517,�k�k��,2.6,��
2024/06/16,18:50,0.520,0.793,0.496,0.987,0.724,0.323,0.558,0.516,�k�k��,3.2,��
2024/06/16,19:00,0.521,0.794,0.498,0.987,0.723,0.321,0.559,0.518,�k�k��,3.6,��
2024/06/16,19:10,0.520,0.794,0.499,0.987,0.725,0.323,0.561,0.517,�k�k��,3.3,��
2024/06/16,19:20,0.519,0.792,0.496,0.987,0.725,0.321,0.560,0.516,�k�k��,4.0,��
2024/06/16,19:30,0.520,0.794,0.497,0.986,0.723,0.322,0.561,0.518,�k��,3.3,��
2024/06/16,19:40,0.521,0.792,0.498,0.986,0.723,0.322,0.559,0.518,�k��,4.1,�L
2024/06/16,19:50,0.519,0.792,0.498,0.989,0.725,0.325,0.559,0.518,���k��,3.8,�L
2024/06/16,20:00,0.519,0.792,0.498,0.989,0.725,0.323,0.561,0.518,���쐼,1.5,��
2024/06/16,20:10,0.520,0.791,0.498,0.985,0.722,0.322,0.559,0.517,�k,0.6,�L
2024/06/16,20:20,0.521,0.794,0.498,0.987,0.726,0.322,0.560,0.516,�k�k��,1.9,��
2024/06/16,20:30,0.519,0.793,0.499,0.987,0.726,0.322,0.559,0.518,�k,3.0,��
2024/06/16,20:40,0.518,0.794,0.498,0.987,0.724,0.323,0.561,0.518,�k�k��,3.2,��
2024/06/16,20:50,0.517,0.793,0.498,0.988,0.725,0.321,0.559,0.517,�k�k��,2.6,��
2024/06/16,21:00,0.520,0.793,0.498,0.986,0.724,0.321,0.561,0.516,�k�k��,2.6,��
2024/06/16,21:10,0.520,0.793,0.498,0.986,0.723,0.321,0.559,0.517,�k��,1.1,��
2024/06/16,21:20,0.517,0.793,0.498,0.987,0.723,0.322,0.560,0.518,�k�k��,1.7,��
2024/06/16,21:30,0.518,0.793,0.496,0.989,0.724,0.320,0.560,0.517,�k�k��,2.9,��
2024/06/16,21:40,0.517,0.793,0.499,0.988,0.725,0.322,0.561,0.518,�k�k��,2.3,��
2024/06/16,21:50,0.519,0.793,0.498,0.985,0.724,0.321,0.562,0.518,�k��,3.3,��
2024/06/16,22:00,0.520,0.793,0.499,0.990,0.725,0.322,0.559,0.518,�k�k��,1.5,��
2024/06/16,22:10,0.516,0.794,0.499,0.989,0.723,0.319,0.560,0.517,�k�k��,2.3,��
2024/06/16,22:20,0.518,0.793,0.496,0.985,0.724,0.320,0.560,0.519,�k�k��,2.0,��
2024/06/16,22:30,0.518,0.791,0.497,0.988,0.723,0.319,0.560,0.517,�k�k��,2.8,��
2024/06/16,22:40,0.520,0.792,0.498,0.987,0.724,0.320,0.559,0.517,�k��,3.2,��
2024/06/16,22:50,0.518,0.792,0.498,0.988,0.726,0.322,0.561,0.517,�k�k��,3.1,��
2024/06/16,23:00,0.519,0.794,0.498,0.987,0.724,0.320,0.560,0.517,�k�k��,3.2,��
2024/06/16,23:10,0.517,0.792,0.497,0.987,0.723,0.321,0.560,0.518,�k�k��,1.7,��
2024/06/16,23:20,0.518,0.794,0.498,0.986,0.725,0.323,0.560,0.515,�k�k��,2.6,��
2024/06/16,23:30,0.519,0.792,0.497,0.988,0.725,0.322,0.560,0.518,�k�k��,2.0,��
2024/06/16,23:40,0.518,0.791,0.498,0.988,0.723,0.322,0.561,0.517,�k�k��,2.5,��
2024/06/16,23:50,0.516,0.794,0.496,0.987,0.723,0.321,0.560,0.519,�k��,2.3,��
